EDT,Max TemperatureF,Mean TemperatureF,Min TemperatureF,Max Dew PointF,MeanDew PointF,Min DewpointF,Max Humidity, Mean Humidity, Min Humidity, Max Sea Level PressureIn, Mean Sea Level PressureIn, Min Sea Level PressureIn, Max VisibilityMiles, Mean VisibilityMiles, Min VisibilityMiles, Max Wind SpeedMPH, Mean Wind SpeedMPH, Max Gust SpeedMPH,PrecipitationIn, CloudCover, Events, WindDirDegrees
2012-4-1,84,70,55,63,60,55,100,78,42,29.94,29.89,29.83,10,8,0,12,3,17,0.00,1,Fog,284
2012-4-2,87,76,64,66,63,59,94,73,38,29.91,29.86,29.82,10,10,7,15,6,20,0.00,1,,284
2012-4-3,87,74,60,64,62,59,100,70,40,30.00,29.94,29.87,10,9,5,6,2,,0.00,1,,120
2012-4-4,86,73,60,63,61,54,100,74,33,29.95,29.88,29.75,10,10,2,14,3,21,0.00,2,,255
2012-4-5,82,71,60,64,61,59,100,77,48,29.79,29.76,29.70,10,10,1,13,5,29,0.00,1,Rain-Thunderstorm,273
2012-4-6,64,58,53,63,56,50,100,89,59,30.01,29.86,29.72,10,8,0,14,5,20,0.00,6,Fog-Rain,39
2012-4-7,71,55,39,50,43,37,100,69,29,30.31,30.21,30.12,10,9,1,8,1,,0.00,0,,61
2012-4-8,78,62,46,54,48,45,100,64,32,30.25,30.16,30.06,10,9,2,12,3,17,0.00,0,,266
2012-4-9,78,64,50,54,47,37,100,61,23,30.15,30.07,30.00,10,10,10,12,3,17,0.00,0,,310
2012-4-10,80,64,48,46,41,34,82,45,18,30.12,30.03,29.95,10,10,10,14,5,18,0.00,0,,300
2012-4-11,73,58,42,50,35,25,76,43,21,30.11,30.04,29.99,10,10,10,14,7,24,0.00,0,,330
2012-4-12,68,54,41,41,32,27,93,49,24,30.27,30.19,30.10,10,10,10,15,6,18,0.00,0,,58
2012-4-13,73,56,39,46,40,34,100,65,23,30.26,30.21,30.16,10,10,10,7,1,,0.00,0,,133
2012-4-14,78,60,41,55,43,36,100,60,21,30.34,30.27,30.19,10,10,7,13,3,16,0.00,0,,139
2012-4-15,82,70,59,63,59,55,100,70,45,30.26,30.21,30.17,10,10,7,15,4,22,0.00,5,,184
2012-4-16,86,68,51,63,59,52,100,70,35,30.25,30.20,30.17,10,10,4,9,4,16,0.00,3,,215
2012-4-17,87,70,53,63,58,54,100,68,33,30.21,30.14,30.05,10,9,1,12,2,18,0.00,3,,178
2012-4-18,69,66,62,64,62,59,100,88,68,30.11,30.06,30.03,10,8,2,7,3,,0.00,7,Rain,99
2012-4-19,73,66,59,63,61,57,100,90,69,30.07,30.02,29.96,10,9,4,9,6,,0.00,8,Rain,60
2012-4-20,77,68,60,64,62,61,100,86,57,30.01,29.94,29.85,10,8,5,8,5,,0.00,6,,74
2012-4-21,82,70,59,64,62,55,100,85,42,29.88,29.78,29.68,10,6,0,21,3,28,0.00,6,Fog-Rain-Thunderstorm,127
2012-4-22,73,63,53,63,52,36,100,71,27,29.75,29.63,29.56,10,10,7,18,7,25,0.00,5,Rain,323
2012-4-23,62,53,44,37,33,28,76,48,27,29.91,29.79,29.74,10,10,10,22,10,30,0.00,1,,310
2012-4-24,71,56,41,45,35,32,87,50,25,29.99,29.94,29.90,10,10,10,18,7,28,0.00,1,,296
2012-4-25,84,65,46,52,48,43,87,56,27,30.04,29.98,29.93,10,10,10,17,6,28,0.00,0,,246
2012-4-26,87,74,62,59,55,50,88,55,29,30.04,30.00,29.93,10,10,10,20,9,26,0.00,0,,244
2012-4-27,86,74,62,64,61,55,94,70,48,30.11,30.05,30.00,10,10,10,15,7,20,0.00,2,Rain,253
2012-4-28,89,74,59,64,56,45,100,63,22,30.13,30.08,30.04,10,10,7,13,2,23,0.00,0,,237
2012-4-29,91,73,55,63,57,52,100,61,26,30.17,30.12,30.06,10,10,10,8,1,,0.00,1,,158
2012-4-30,93,76,60,64,60,55,94,60,28,30.20,30.14,30.09,10,10,10,15,4,18,0.00,0,,153